STARLINK-32777, 62525

Orbit data source: Space-Track

STARLINK-32777, 62525 is a payload satellite owned by SpaceX/Seattle (US) in LEO that was launched on Wed, 08 Jan 2025 UTC via an FALCON 9 launch vehicle from the Air Force Eastern Test Range (AFETR). Payload-class satellites include a variety of spacecraft equipped with specific instruments for various scientific and technological missions. These include communications satellites like Starlink; space stations such as the ISS; scientific satellites like the Hubble; Earth observation satellites from companies like Planet Labs, Umbra, and HawkEye 360; GPS; miniature CubeSats for education and research; and military/defense satellites.

Loading next visibility...
Identifier
62525, 2025-004Q
Orbit
LEO
Country
Flag of USUS
Related business
Manufacturer
SpaceX/Seattle
Mission
Operational Commercial Communications
Bus & Motor
STARLINK V2M, Unknown motor
Mass
730 kg wet, ~700 kg dry
Launch date (UTC)
2025-01-08 (1 year ago)
Launch vehicle
FALCON 9
Launch site
Air Force Eastern Test Range (AFETR)
Object type
Payload
Rocket body
Debris
Shape & HBR
Box + 2 Pan, 17.7 m
Radar Cross Section
33.884 m², Large (>1 m²)

Expand to show TLE details & history
Last TLE update: 11 hours ago

TLE from 11 hours ago
0 STARLINK-32777
1 62525U 25004Q   26125.76590703  .00020328  00000-0  74542-3 0  9994
2 62525  43.0013 257.8873 0001337 279.8862  80.1838 15.27613482 75187
Epoch: 2026-05-05T18:22Z
TLE epoch observation values (Epoch: 2026-05-05T18:22:54.367Z)
Latitude
-0.00006°
Longitude
118.52466°
Altitude
482.568 km
Speed
7.626 km/s
True Right ascension
17h 11m 32s
True Declination
0° 00' 00"
Sunlit
Object was in full shadow at epoch
Visualization orbit readout
Latitude
Unknown
Longitude
Unknown
Altitude
Unknown
Speed
Unknown
Apparent Right ascension
Unknown
Apparent Declination
Unknown
Sunlit
N/A
Visualization observer readout
Local Sidereal Time
13:16:05
Azimuth
Unknown
Elevation
Unknown
Doppler factor
Unknown
Orbital elements
Apogee altitude
485.811 km
Perigee altitude
483.976 km
Semi-major axis
6,863.031 km
Eccentricity
0.00013
Inclination
43.0013°
RAAN
257.8873°
Arg. of periapsis
279.8862°
True anomaly
80.1989°
Mean anomaly
80.1838°
Eccentric anomaly
80.19135°
Mean motion
3.81741 °/min
Orbital period
94.3 mins
BSTAR
0.00074542
Loading maneuver chart data...
Computing Atmospheric mass density...
Loading historical data...
Loading historical data...
Loading historical data...
Loading historical data...
Loading historical data...
Loading historical data...
Loading historical data...

Documentation

Showing up to 5 results
|